[[{"header":{"parameterUnit":"m.s-1","parameterCategory":1,"la1":30.2991,"la2":30.254,"lo1":-89.0895,"lo2":-89.0444,"dy":0.0017,"dx":0.0017,"nx":28,"ny":28,"refTime":"2025-07-31T03:00:00:Z","depth":0,"parameterNumber":2,"parameterNumberName":"U-component_of_WINDS"},"data":[0,0,0,0,0,0,0,0,0,0,0,0,0,0,0,0,0,0,0,0,0,0,0,0,0,0,0,0,0,0,0,0,0,0,0,0,0,0,0,0,0,0,0,0,0,0,0,0,0,0,0,0,0,0,0,0,0,0,-1.0238,-1.0238,0,-1.0227,-1.0227,-1.0227,-1.0293,-1.0295,-1.0297,-1.0299,-1.0277,-1.0275,-1.0273,0,0,0,0,0,0,0,0,0,0,0,0,0,-1.0309,-1.0307,-1.0238,-1.0238,-1.0238,-1.0227,-1.0227,-1.0227,-1.0293,-1.0295,-1.0297,-1.03,-1.0278,-1.0275,-1.0272,0,0,0,0,0,0,0,0,0,0,0,0,0,-1.0286,-1.0307,-1.0238,-1.027,-1.0273,-1.0227,-1.0227,-1.0227,-1.0292,-1.0295,-1.0298,-1.0301,-1.0279,-1.0276,-1.0272,-1.0193,0,0,-1.0261,-1.026,0,0,0,0,0,0,0,0,-1.0287,-1.0283,-1.0265,-1.0268,-1.0271,-1.0265,-1.0244,-1.0215,-1.0291,-1.0284,-1.0299,-1.0302,-1.027,-1.0267,-1.0259,-1.0192,-1.0191,-1.0261,-1.0259,-1.0257,-1.0256,0,0,0,0,0,0,0,-1.0288,-1.0284,-1.0233,-1.0265,-1.0268,-1.0282,-1.0282,-1.0239,-1.0261,-1.0285,-1.029,-1.0288,-1.0272,-1.0262,-1.0259,-1.019,-1.0261,-1.0258,-1.0256,-1.0254,-1.0058,-1.0055,0,0,0,0,0,0,-1.0287,-1.0285,-1.0234,-1.0233,-1.0286,-1.0278,-1.0278,-1.0263,-1.0262,-1.0264,-1.0286,-1.0292,-1.0267,-1.0263,-1.0258,-1.0165,-1.0257,-1.0254,-1.0252,-1.0061,-1.0057,-1.0054,0,0,0,0,0,0,-1.0288,-1.0282,-1.0234,-1.026,-1.0255,-1.0274,-1.0257,-1.0262,-1.0252,-1.0262,-1.0266,-1.0272,-1.0269,-1.0263,-1.0209,-1.0165,-1.0252,-1.0249,-1.0064,-1.006,-1.0055,-0.9978,0,0,0,0,0,0,-1.029,-1.0282,-1.0254,-1.0259,-1.0254,-1.0187,-1.0254,-1.0259,-1.0247,-1.0254,-1.025,-1.0252,-1.0271,-1.0214,-1.0206,-1.0162,-1.0246,-1.0068,-1.0062,-1.0057,-0.9984,-0.9971,-0.996,0,0,0,0,0,-1.0292,-1.023,-1.0252,-1.0245,-1.0219,-1.0185,-1.0181,-1.0207,-1.0243,-1.0213,-1.022,-1.0252,-1.0172,-1.0208,-1.0199,-1.0153,-1.0071,-1.0064,-1.0057,-0.999,-0.9974,-0.996,0,0,0,0,0,0,-1.0215,-1.0231,-1.0256,-1.0194,-1.0188,-1.0196,-1.016,-1.0189,-1.017,-1.0177,-1.0206,-1.0204,-1.0145,-1.0144,-1.0184,-1.0077,-1.0127,-1.0118,-1.0079,-1.0064,-1.0052,-1.0052,-1.0243,0,0,0,0,0,-1.0191,-1.0165,-1.018,-1.0123,-1.012,-1.014,-1.0126,-1.0147,-1.014,-1.0137,-1.014,-1.013,-1.0103,-1.0083,-1.0059,-0.9985,-0.9984,-0.9949,-0.9937,-0.9927,-0.9918,-0.9879,-0.9863,-1.0031,-1.0031,-1.0031,0,0,-1.014,-1.0146,-1.0127,-1.0108,-1.0106,-1.0075,-1.0137,-1.0102,-1.0079,-1.013,-1.0081,-1.0082,-1.0073,-1.0009,-0.9981,-1.0006,-0.9872,-0.9918,-0.991,-0.9906,-0.987,-0.9854,-0.984,-1.0026,-1.0027,-1.0028,0,0,-1.0033,-1.0036,-0.9989,-0.9987,-0.9984,-0.9999,-0.9988,-0.9992,-0.9997,-0.9948,-0.9986,-0.9958,-0.991,-0.9902,-0.9892,-0.9784,-0.9812,-0.9774,-0.9709,-0.967,-0.9657,-0.9646,-0.9606,-0.9591,-0.9766,-0.9766,-0.9766,0,-0.9969,-0.9928,-0.9961,-0.9924,-0.9914,-0.9963,-0.9915,-0.991,-0.9898,-0.9889,-0.9919,-0.9861,-0.9858,-0.9793,-0.9767,-0.9757,-0.9744,-0.9774,-0.9657,-0.9646,-0.9635,-0.9597,-0.9583,-0.9761,-0.9762,-0.9762,-0.9763,0,-0.985,-0.982,-0.9783,-0.9774,-0.976,-0.9717,-0.9741,-0.9723,-0.9745,-0.9755,-0.9704,-0.9704,-0.968,-0.9666,-0.9686,-0.9604,-0.962,-0.9653,-0.9704,-0.9614,-0.9579,-0.9565,-0.9755,-0.9756,-0.9758,-0.9759,0,0,-0.969,-0.9703,-0.9688,-0.9685,-0.9686,-0.9663,-0.9622,-0.9603,-0.9585,-0.9576,-0.9541,-0.9501,-0.9533,-0.9521,-0.954,-0.9506,-0.942,-0.9544,-0.9544,-0.9519,-0.9328,-0.9302,-0.9284,-0.944,-0.9437,-0.9435,-0.9328,0,-0.9584,-0.9519,-0.9548,-0.9478,-0.945,-0.9498,-0.9462,-0.9458,-0.9467,-0.9443,-0.9452,-0.9423,-0.9468,-0.9461,-0.943,-0.9437,-0.9381,-0.9445,-0.9405,-0.9403,-0.9404,-0.9266,-0.9238,-0.9137,-0.9315,-0.9313,-0.9311,0,-0.9451,-0.944,-0.9368,-0.9376,-0.9366,-0.9334,-0.9318,-0.9296,-0.9291,-0.9301,-0.9289,-0.9316,-0.9275,-0.9328,-0.927,-0.9313,-0.9298,-0.9299,-0.9296,-0.9291,-0.935,-0.9256,-0.9106,-0.909,-0.929,-0.9292,-0.9293,0,-0.9341,-0.9308,-0.9261,-0.9256,-0.9264,-0.9241,-0.9242,-0.9242,-0.9228,-0.9214,-0.9205,-0.9185,-0.9173,-0.9156,-0.9177,-0.9214,-0.9115,-0.917,-0.9119,-0.9118,-0.9094,-0.9095,-0.8937,-0.9088,-0.9088,-0.9088,-0.9088,0,-0.9219,-0.9172,-0.9211,-0.9182,-0.9131,-0.9165,-0.9113,-0.9119,-0.9119,-0.909,-0.9129,-0.91,-0.913,-0.9104,-0.9119,-0.9068,-0.9063,-0.9067,-0.9071,-0.9062,-0.9062,-0.9051,-0.9058,-0.9084,-0.9085,-0.9086,-0.9087,0,-0.9085,-0.911,-0.9062,-0.9075,-0.9077,-0.9039,-0.9049,-0.9021,-0.9034,-0.8997,-0.899,-0.901,-0.8981,-0.9001,-0.897,-0.8981,-0.8914,-0.8929,-0.8916,-0.8919,-0.8867,-0.8871,-0.8695,-0.8673,-0.8839,-0.8838,-0.8837,0,-0.9005,-0.8971,-0.8982,-0.8967,-0.8967,-0.8942,-0.893,-0.8961,-0.8946,-0.894,-0.8913,-0.8888,-0.887,-0.8821,-0.8831,-0.8808,-0.8821,-0.8762,-0.8818,-0.881,-0.8819,-0.882,-0.8816,-0.8749,-0.8747,-0.8746,-0.8744,0,-0.8859,-0.8874,-0.8856,-0.8842,-0.8827,-0.8817,-0.881,-0.8795,-0.8827,-0.8808,-0.8781,-0.8767,-0.8739,-0.8713,-0.8694,-0.8693,-0.8723,-0.8727,-0.8714,-0.8703,-0.8697,-0.8699,-0.8883,-0.873,-0.8732,-0.8733,-0.8733,-0.8734,-0.8749,-0.8721,-0.8725,-0.8703,-0.8702,-0.8695,-0.867,-0.8682,-0.8661,-0.8642,-0.8662,-0.8629,-0.8625,-0.8605,-0.86,-0.8573,-0.8597,-0.8578,-0.8573,-0.8567,-0.8559,-0.8704,-0.857,-0.857,-0.857,-0.8571,-0.8571,0,-0.8604,-0.8609,-0.859,-0.858,-0.8563,-0.8598,-0.8592,-0.8574,-0.8546,-0.8542,-0.8525,-0.8493,-0.8469,-0.8478,-0.8456,-0.8432,-0.8445,-0.8425,-0.8426,-0.8425,-0.8539,-0.8553,-0.8415,-0.8415,-0.8415,-0.8415,-0.8415,-0.8415,-0.8526,-0.8481,-0.8496,-0.845,-0.8455,-0.8426,-0.8419,-0.8412,-0.841,-0.8374,-0.8356,-0.8363,-0.8364,-0.8343,-0.8321,-0.8325,-0.8314,-0.8288,-0.8296,-0.8402,-0.8417,-0.8432,-0.8444,-0.8286,-0.8286,-0.8184,-0.8183,-0.8182]},{"header":{"parameterUnit":"m.s-1","parameterCategory":1,"la1":30.2991,"la2":30.254,"lo1":-89.0895,"lo2":-89.0444,"dy":0.0017,"dx":0.0017,"nx":28,"ny":28,"refTime":"2025-07-31T03:00:00:Z","depth":0,"parameterNumber":3,"parameterNumberName":"V-component_of_WINDS"},"data":[0,0,0,0,0,0,0,0,0,0,0,0,0,0,0,0,0,0,0,0,0,0,0,0,0,0,0,0,0,0,0,0,0,0,0,0,0,0,0,0,0,0,0,0,0,0,0,0,0,0,0,0,0,0,0,0,0,0,1.3131,1.3131,0,1.3127,1.3127,1.3127,1.3169,1.317,1.3171,1.3172,1.3166,1.3165,1.3163,0,0,0,0,0,0,0,0,0,0,0,0,0,1.3174,1.3173,1.3131,1.3131,1.3131,1.3127,1.3127,1.3127,1.3169,1.317,1.3172,1.3173,1.3166,1.3165,1.3163,0,0,0,0,0,0,0,0,0,0,0,0,0,1.3161,1.3173,1.3131,1.3152,1.3154,1.3127,1.3127,1.3127,1.3168,1.317,1.3172,1.3174,1.3167,1.3165,1.3163,1.3116,0,0,1.3157,1.3156,0,0,0,0,0,0,0,0,1.3162,1.3159,1.3149,1.315,1.3152,1.315,1.3139,1.3123,1.3168,1.3163,1.3172,1.3174,1.3159,1.3158,1.3153,1.3115,1.3115,1.3157,1.3156,1.3155,1.3154,0,0,0,0,0,0,0,1.3162,1.316,1.3129,1.3149,1.3151,1.316,1.316,1.3136,1.3151,1.3163,1.3166,1.3165,1.316,1.3155,1.3153,1.3115,1.3157,1.3155,1.3154,1.3153,1.3036,1.3035,0,0,0,0,0,0,1.3161,1.316,1.313,1.3129,1.3161,1.3158,1.3158,1.3149,1.3151,1.3153,1.3164,1.3167,1.3157,1.3155,1.3153,1.3097,1.3155,1.3153,1.3152,1.3038,1.3036,1.3034,0,0,0,0,0,0,1.3162,1.3158,1.313,1.3146,1.3143,1.3155,1.3145,1.3148,1.3143,1.3152,1.3154,1.3156,1.3159,1.3156,1.3124,1.3097,1.3152,1.3151,1.3041,1.3038,1.3035,1.2985,0,0,0,0,0,0,1.3163,1.3158,1.3141,1.3145,1.3142,1.3102,1.3143,1.3147,1.3139,1.3144,1.3145,1.3147,1.316,1.3127,1.3123,1.3096,1.3149,1.3043,1.3039,1.3036,1.2989,1.298,1.2973,0,0,0,0,0,1.3164,1.3127,1.314,1.3136,1.3121,1.31,1.3098,1.3115,1.3137,1.3119,1.3125,1.3147,1.3101,1.3124,1.3119,1.3091,1.3045,1.304,1.3036,1.2992,1.2982,1.2973,0,0,0,0,0,0,1.3119,1.3128,1.3142,1.3105,1.3102,1.3108,1.3086,1.3104,1.3093,1.3098,1.3118,1.3118,1.3082,1.3084,1.3109,1.3044,1.3077,1.3071,1.3045,1.3035,1.3028,1.3028,1.3148,0,0,0,0,0,1.3105,1.3088,1.3097,1.3063,1.3061,1.3073,1.3065,1.3078,1.3075,1.3073,1.3077,1.3072,1.3057,1.3046,1.3032,1.2989,1.2989,1.2967,1.2959,1.2953,1.2948,1.2923,1.2913,1.3019,1.3019,1.3019,0,0,1.3076,1.3078,1.3067,1.3054,1.3053,1.3034,1.3072,1.3051,1.3037,1.307,1.304,1.3042,1.3038,1.3,1.2984,1.3,1.2918,1.2947,1.2942,1.294,1.2918,1.2907,1.2898,1.3016,1.3017,1.3017,0,0,1.3012,1.3013,1.2985,1.2982,1.298,1.2988,1.2981,1.2984,1.2987,1.2957,1.2981,1.2964,1.2938,1.2933,1.2928,1.286,1.2879,1.2855,1.2814,1.279,1.2782,1.2774,1.2749,1.274,1.285,1.285,1.285,0,1.2976,1.295,1.2968,1.2945,1.2938,1.2967,1.2937,1.2934,1.2927,1.2921,1.2939,1.2905,1.2905,1.2866,1.2849,1.2844,1.2835,1.2855,1.2782,1.2774,1.2768,1.2744,1.2734,1.2847,1.2847,1.2848,1.2848,0,1.2904,1.2885,1.2862,1.2854,1.2845,1.2819,1.2832,1.282,1.2833,1.2839,1.2807,1.2808,1.2794,1.2786,1.2798,1.2747,1.2757,1.2778,1.2811,1.2754,1.2732,1.2723,1.2843,1.2844,1.2845,1.2846,0,0,1.2814,1.2815,1.2806,1.2802,1.2801,1.2786,1.276,1.2747,1.2735,1.2729,1.2707,1.2683,1.2702,1.2695,1.2707,1.2686,1.2631,1.271,1.271,1.2694,1.2573,1.2557,1.2546,1.2644,1.2642,1.2641,1.2573,0,1.2751,1.2708,1.2723,1.2678,1.266,1.2686,1.2663,1.2659,1.2664,1.2648,1.2653,1.2635,1.2662,1.2658,1.2638,1.2642,1.2607,1.2647,1.2622,1.2621,1.2622,1.2535,1.2518,1.2454,1.2565,1.2563,1.2562,0,1.2673,1.2663,1.2616,1.2616,1.2609,1.2589,1.2576,1.2562,1.2557,1.2561,1.2553,1.2569,1.2542,1.2575,1.2538,1.2565,1.2555,1.2555,1.2553,1.2551,1.2588,1.2529,1.2434,1.2424,1.2549,1.255,1.2551,0,1.261,1.2585,1.2553,1.2549,1.2549,1.2533,1.2532,1.2529,1.2519,1.2509,1.2502,1.2488,1.248,1.2469,1.248,1.2503,1.244,1.2475,1.2442,1.2442,1.2428,1.2428,1.2329,1.2422,1.2423,1.2423,1.2423,0,1.2538,1.2509,1.2525,1.2506,1.2472,1.2489,1.2455,1.2457,1.2454,1.2434,1.2456,1.2437,1.2454,1.2436,1.2444,1.2411,1.2408,1.241,1.2412,1.2407,1.2407,1.2401,1.2405,1.242,1.2421,1.2421,1.2422,0,1.2463,1.2473,1.244,1.2441,1.2441,1.2416,1.2417,1.2399,1.2404,1.2379,1.2374,1.2382,1.2362,1.2372,1.2352,1.2357,1.2314,1.2323,1.2316,1.2318,1.2284,1.2287,1.2177,1.2163,1.2266,1.2265,1.2265,0,1.2416,1.2394,1.2392,1.2381,1.2378,1.236,1.235,1.2365,1.2353,1.2345,1.2327,1.2308,1.2295,1.2261,1.2264,1.2248,1.2256,1.2219,1.2254,1.2249,1.2254,1.2255,1.2252,1.2212,1.221,1.2209,1.2209,0,1.2332,1.2337,1.2323,1.2309,1.2296,1.2286,1.2277,1.2266,1.2281,1.2267,1.2246,1.2235,1.2214,1.2195,1.218,1.2178,1.2195,1.2197,1.2189,1.2183,1.218,1.218,1.2296,1.22,1.2201,1.2201,1.2202,1.2202,1.2269,1.2249,1.2245,1.2227,1.2222,1.2213,1.2195,1.2198,1.2182,1.2165,1.2175,1.215,1.2144,1.2126,1.2121,1.2102,1.2117,1.2105,1.2101,1.2098,1.2093,1.2183,1.2099,1.21,1.21,1.21,1.21,0,1.2185,1.2183,1.2166,1.2153,1.2138,1.2156,1.2147,1.2134,1.2112,1.2105,1.2091,1.2066,1.2047,1.2049,1.2031,1.2015,1.2022,1.201,1.2011,1.201,1.2081,1.209,1.2004,1.2004,1.2004,1.2004,1.2004,1.2004,1.2139,1.2107,1.2112,1.2076,1.2075,1.2051,1.2044,1.2035,1.203,1.2002,1.1986,1.1987,1.1983,1.1965,1.1948,1.1949,1.1941,1.1925,1.1929,1.1996,1.2005,1.2014,1.2022,1.1924,1.1924,1.1859,1.1858,1.1858]}]]